Location: Jaujac
(44.6354°N, 4.2573°E)
Time: 23:31:49
(UTC+00:00)

Daily predictions for brighter satellites

Satellite Brightness Start Highest point End
(mag) Time Altitude Azimuth Time Altitude Azimuth Time Altitude Azimuth
COSMO-SKYMED 1 4.2 16:42:01 10° NE 16:44:32 15° E 16:47:04 10° SE
Cosmos 773 Rocket 4.1 16:39:28 10° S 16:44:33 62° ESE 16:49:42 10° NNE
Cosmos 2297 Rocket 2.4 16:41:38 10° NNW 16:47:10 51° ENE 16:52:39 10° SE
Cosmos 2227 Rocket 2.5 16:41:43 10° NNW 16:47:13 47° ENE 16:52:39 10° SE
BREEZE-M DEB (TANK) 4.1 16:47:21 10° SW 16:50:59 68° SE 17:03:08 10° ENE
Lacrosse 4 Rocket 2.7 16:48:29 10° SSE 16:51:40 22° ESE 16:54:51 10° ENE
Cosmos 1867 4.2 16:48:13 10° SW 16:53:36 59° NW 16:59:01 10° NNE
Cosmos 2344 4.1 16:49:43 10° WSW 16:57:06 58° NW 17:05:21 10° NE
CZ-4 R/B 2.7 16:57:47 10° ESE 17:00:48 20° ENE 17:03:47 10° NNE
Cosmos 2221 2.9 16:58:48 10° SSW 17:03:05 71° W 17:07:27 10° N
H-2A R/B 2.7 17:00:14 10° SSE 17:04:03 65° ENE 17:07:50 10° N
Genesis I 4.2 17:00:52 10° SW 17:04:45 47° NW 17:08:38 10° NNE
Cosmos 2369 4.4 17:01:02 10° SSE 17:06:03 34° ESE 17:11:07 10° NE
CZ-4B R/B 4.4 17:06:01 10° NW 17:07:36 13° WNW 17:09:10 10° W
Cosmos 2263 Rocket 3.9 17:05:34 10° NNE 17:07:42 12° NE 17:09:13 11° NE
Cosmos 1538 Rocket 4.0 17:02:56 10° SSW 17:08:10 76° ESE 17:13:31 10° NNE
YAOGAN 1 3.8 17:08:10 10° ESE 17:11:25 21° ENE 17:14:42 10° NNE
Cosmos 2082 3.9 17:10:25 10° NNW 17:15:54 50° ENE 17:21:20 10° SE
USA 215 4.1 17:11:47 13° ENE 17:16:52 33° NNE 17:22:33 10° NW
SMAP 3.3 17:13:10 10° S 17:17:48 77° WSW 17:22:30 10° NNW
ATLAS 5 CENTAUR R/B 2.5 17:15:34 10° NW 17:21:25 87° SW 17:28:06 10° SE
Cosmos 1697 Rocket 3.1 17:16:21 10° S 17:21:38 42° ESE 17:26:50 10° NE
NOAA 12 4.1 17:17:18 10° SSE 17:22:37 72° ENE 17:27:56 10° N
NOSS 2-3 (E) 4.4 17:19:02 10° S 17:22:56 34° ESE 17:25:54 18° ENE
USA 229 DEB 3.7 17:18:42 10° SW 17:25:17 84° NW 17:32:12 10° NE
Cosmos 2278 4.3 17:20:14 10° S 17:25:20 36° ESE 17:29:44 14° NE
USA 229 3.7 17:18:49 10° SW 17:25:22 85° NW 17:32:17 10° NE
BREEZE-M DEB (TANK) 3.5 17:16:24 10° W 17:25:51 54° NNW 17:28:08 20° ENE
GEOS 3 Rocket 3.6 17:21:26 10° NE 17:26:42 88° SE 17:31:59 10° SW
Cosmos 2034 Rocket 4.3 17:21:10 10° N 17:27:13 44° ENE 17:33:16 10° SSE
NOSS 3-1 (C) 3.4 17:24:47 10° SW 17:30:18 84° NW 17:36:36 11° NE
NOSS 3-1 (A) 3.3 17:25:07 10° SSW 17:30:32 65° ESE 17:36:01 14° NE
NOSS 2-3 (D) 4.2 17:28:24 10° S 17:32:24 39° ESE 17:34:59 21° ENE
SKYMED 2 3.8 17:28:50 10° NNE 17:33:02 46° E 17:37:12 10° S
Okean-O 2.6 17:28:46 10° SSE 17:33:12 87° WSW 17:37:40 10° NNW
Envisat 2.9 17:28:48 10° SSE 17:33:51 73° ENE 17:38:56 10° N
Cosmos 1633 2.5 17:30:25 10° N 17:34:03 64° E 17:37:39 10° SSE
SeaSat 1 2.4 17:31:51 10° SSE 17:36:47 80° ENE 17:41:44 10° NNW
Cosmos 1862 3.3 17:33:24 10° N 17:37:19 56° ENE 17:41:14 10° SSE
Cosmos 1805 Rocket 4.2 17:37:00 10° NNW 17:41:18 58° W 17:45:35 10° S
Cosmos 1656 3.8 17:42:19 10° SSW 17:47:52 72° WNW 17:53:22 10° NNE
ERBS 2.5 17:46:51 10° WSW 17:50:08 62° NW 17:51:17 36° NNE
Tsikada Rocket 4.3 17:44:40 10° SSE 17:50:38 45° E 17:56:41 10° NNE
Cosmos 1371 Rocket 4.2 17:47:23 10° N 17:52:22 44° ENE 17:55:24 22° SE
BREEZE-M DEB (TANK) 2.7 17:48:00 10° SW 17:53:41 50° SSE 17:54:37 38° ESE
NOAA 11 4.4 17:51:33 10° SE 17:56:39 43° ENE 18:01:46 10° N
CSL-04 Debris 4.1 17:54:17 10° SSE 17:59:43 67° ENE 18:05:11 10° N
YAOGAN 6 2.4 17:56:36 10° S 18:00:05 85° WSW 18:03:36 10° NNW
Geosat 4.4 17:56:26 10° NNE 18:01:24 61° WNW 18:06:21 10° SW
Cosmos 2112 Rocket 3.9 18:00:42 10° S 18:05:50 70° ESE 18:08:59 24° NNE
CENTAUR R/B 4.4 18:02:08 10° NNW 18:07:27 20° NNE 18:09:54 18° NE
Cosmos 1633 Rocket 3.4 18:05:37 10° NNW 18:10:00 68° W 18:14:23 10° S
NOSS 2-3 (C) 3.6 18:05:51 10° SW 18:10:11 87° SE 18:12:02 38° NE
Cosmos 158 Rocket 4.1 18:07:07 10° S 18:12:15 52° ESE 18:13:15 45° ENE
Cosmos 1680 Rocket 3.4 18:07:30 10° SSW 18:12:43 87° WNW 18:16:26 20° NNE
Cosmos 1464 Rocket 4.5 18:09:11 10° NNW 18:15:13 61° W 18:21:13 10° S
CSL-04 Rocket 3.5 18:10:41 10° SSE 18:16:03 90° ENE 18:21:24 10° NNW
Ariane Rocket 3.4 18:17:35 42° NE 18:17:35 42° NE 18:21:39 10° N
COSMO-SKYMED 1 3.2 18:16:48 10° N 18:21:03 54° WNW 18:25:15 10° SSW
Cosmos 1933 Rocket 4.3 18:19:13 10° N 18:21:58 37° N 18:21:58 37° N
Cosmos 1151 Rocket 3.2 18:20:02 10° SSW 18:24:21 73° W 18:27:13 21° N
Cosmos 1328 Rocket 3.9 18:20:23 10° SSW 18:24:47 67° W 18:28:21 15° N
Cosmos 1515 Rocket 3.4 18:21:06 10° S 18:25:22 77° ESE 18:25:22 77° ESE
Cosmos 1980 Rocket 2.1 18:20:27 10° SSW 18:26:05 76° ESE 18:27:57 44° NE
ATLAS 3B R/B 4.3 18:22:13 10° NNW 18:26:16 16° NNE 18:27:04 16° NNE
Lacrosse 4 Rocket 2.7 18:26:22 10° WSW 18:30:09 36° NW 18:31:30 28° NNW
Cosmos 2297 Rocket 4.4 18:26:18 10° NW 18:30:51 26° WSW 18:35:24 10° SSW
Cosmos 2227 Rocket 4.2 18:26:16 10° NW 18:30:59 28° WSW 18:35:40 10° SSW
H-2A R/B 4.4 18:38:22 11° N 18:38:22 11° N 18:38:32 10° N
CZ-4 R/B 2.8 18:31:40 10° SSW 18:35:34 39° W 18:39:26 10° NNW
Meteor 1-19 4.5 18:36:16 10° S 18:41:48 77° E 18:42:02 75° ENE
Cosmos 1624 Rocket 4.0 18:38:31 10° NNW 18:43:53 80° WSW 18:45:15 51° S
Cosmos 2056 Rocket 3.4 18:39:10 10° NNW 18:44:19 81° WSW 18:44:58 68° S
YAOGAN 1 3.8 18:43:12 10° SSW 18:47:16 40° W 18:51:22 10° NNW
Cosmos 2263 Rocket 3.0 18:47:25 10° NNW 18:50:56 37° N 18:50:56 37° N
USA 215 3.2 18:59:08 63° NNE 18:59:10 63° NNE 19:05:37 10° NW
Cosmos 1697 Rocket 4.2 19:00:37 10° WSW 19:05:41 33° NW 19:08:36 21° N
CENTAUR R/B 4.3 19:52:58 10° NNW 19:57:05 30° N 19:57:05 30° N
Cosmos 1980 Rocket 4.4 20:06:30 10° W 20:09:46 20° WNW 20:09:46 20° WNW
